IRIDIUM 76

Last updated on Wed Nov 29 2017 00:19:03 GMT+0000 (Coordinated Universal Time)

1 25432U 98048B 17332.50917887 .00000114 00000-0 33773-4 0 9999 2 25432 86.3977 186.7962 0001786 87.2964 272.8436 14.34218567 9142
UTC large
Height (km)
Speed (km/s)
/
Latitude / Longitude
Inclination (degrees)
Orbital Period (minutes)
Azimuth
Elevation
Range (km)
Doppler Factor

Next 0 passes for location: London (51.5072 / 0.1276)

Sorry there are no passes over London.